Weather History for Penticton, BC

Change the Weather History Date:

Monday, October 1, 2012

  Actual Average Record
Temperature  
Mean Temperature 58 °F -  
Max Temperature 73 °F 58 °F 75 °F (1998)
Min Temperature 43 °F 37 °F 37 °F (2000)
Degree Days  
Heating Degree Days 7    
Growing Degree Days 8 (Base 50)    
Moisture  
Dew Point 41 °F    
Average Humidity 51    
Maximum Humidity 71    
Minimum Humidity 24    
Precipitation  
Precipitation 0.00 in 0.02 in - ()
Sea Level Pressure  
Sea Level Pressure 30.11 in    
Wind  
Wind Speed 5 mph ()    
Max Wind Speed 17 mph    
Max Gust Speed 23 mph    
Visibility 15.0 miles    
Events Rain    
Averages and records for this station are not official NWS values.
T = Trace of Precipitation, MM = Missing Value Source: Averaged Metar Reports

Daily Weather History Graph

Daily Weather History Graph

Search for Another Location

Airport:

Trip Planner

Search our weather history database for the weather conditions in past years. The results will help you decide how hot, cold, wet, or windy it might be!

Date:

Astronomy

Oct. 01, 2012 Rise Set
Actual Time 6:59 AM PDT 6:35 PM PDT
Civil Twilight 6:27 AM PDT 7:07 PM PDT
Nautical Twilight 5:50 AM PDT 7:44 PM PDT
Astronomical Twilight 5:12 AM PDT 8:22 PM PDT
Moon 7:00 PM PDT (10/1) 8:47 AM PDT (10/1)
Length of Visible Light 12h 40m
Length of Day
11h 36m
Full, 97% of the Moon is Illuminated
Oct 1
Full
Oct 8
Last Quarter
Oct 15
New
Oct 21
First Quarter
Oct 29
Full

Hourly Weather History & Observations

Time (PDT) Temp. Dew Point Humidity Pressure Visibility Wind Dir Wind Speed Gust Speed Precip Events Conditions
12:00 AM 50.0 °F 37.4 °F 62% 30.29 in 15.0 mi Calm Calm - N/A   Partly Cloudy
1:00 AM 48.2 °F 35.6 °F 62% 30.29 in 15.0 mi North 2.3 mph - N/A   Scattered Clouds
2:00 AM 48.2 °F 37.4 °F 66% 30.28 in 15.0 mi Calm Calm - N/A   Scattered Clouds
3:00 AM 48.2 °F 37.4 °F 66% 30.27 in 15.0 mi Variable 2.3 mph - N/A   Scattered Clouds
4:00 AM 48.2 °F 39.2 °F 71% 30.26 in 15.0 mi Calm Calm - N/A   Scattered Clouds
5:00 AM 48 °F 39 °F 61% 30.25 in 15 mi Calm Calm - -   Clear
5:00 AM 48.2 °F 39.2 °F 71% 30.25 in 15.0 mi Calm Calm - N/A   Mostly Cloudy
6:00 AM 48.2 °F 37.4 °F 66% 30.25 in 15.0 mi North 4.6 mph - N/A   Mostly Cloudy
7:00 AM 48.2 °F 39.2 °F 71% 30.24 in 15.0 mi WNW 4.6 mph - N/A   Mostly Cloudy
8:00 AM 55.4 °F 44.6 °F 67% 30.24 in 15.0 mi South 9.2 mph - N/A   Mostly Cloudy
9:00 AM 57.2 °F 41.0 °F 55% 30.21 in 15.0 mi SSE 13.8 mph 19.6 mph N/A   Mostly Cloudy
10:00 AM 59.0 °F 39.2 °F 48% 30.19 in 15.0 mi SSE 17.3 mph - N/A   Mostly Cloudy
11:00 AM 60 °F 38 °F 33% 30.16 in 15 mi South 15.0 mph - -   Scattered Clouds
11:00 AM 60.8 °F 39.2 °F 45% 30.16 in 15.0 mi South 16.1 mph 23.0 mph N/A   Mostly Cloudy
12:00 PM 60.8 °F 41.0 °F 48% 30.16 in 15.0 mi South 13.8 mph - N/A   Mostly Cloudy
1:00 PM 60.8 °F 39.2 °F 45% 30.12 in 15.0 mi South 16.1 mph 23.0 mph N/A   Mostly Cloudy
2:00 PM 66.2 °F 35.6 °F 32% 30.06 in 15.0 mi South 17.3 mph 23.0 mph N/A   Mostly Cloudy
3:00 PM 69.8 °F 41.0 °F 35% 30.02 in 15.0 mi SSE 12.7 mph 20.7 mph N/A   Mostly Cloudy
4:00 PM 69.8 °F 42.8 °F 38% 29.99 in 15.0 mi South 17.3 mph 23.0 mph N/A   Mostly Cloudy
5:00 PM 70 °F 41 °F 24% 29.96 in 15 mi South 15.0 mph - -   Mostly Cloudy
5:00 PM 69.8 °F 41.0 °F 35% 29.96 in 15.0 mi South 15.0 mph 21.9 mph N/A   Mostly Cloudy
6:00 PM 69.8 °F 42.8 °F 38% 29.94 in 15.0 mi South 5.8 mph - N/A   Mostly Cloudy
7:31 PM 66.2 °F 46.4 °F 49% 29.91 in 15.0 mi NNW 4.6 mph - N/A Rain Light Rain Showers
8:00 PM 64.4 °F 48.2 °F 56% 29.92 in 15.0 mi West 5.8 mph - N/A   Mostly Cloudy
10:00 PM 71.6 °F 48.2 °F 43% 29.89 in 15.0 mi West 3.5 mph - N/A   Mostly Cloudy
11:00 PM 66 °F 47 °F 39% 29.91 in 15 mi Calm Calm - -   Partly Cloudy
11:00 PM 66.2 °F 46.4 °F 49% 29.91 in 15.0 mi Variable 2.3 mph - N/A   Mostly Cloudy